| time (UTC) | temp F | wind direction | speed MPH | gust MPH | rain 1hr in | rain 24hr in | rain mn in | humidity % | barometer mb |
| 20260503021323 | 44 | 0.0 | 0.0 | 0.00 | 0.00 | 0.00 | 67 | 1018.5 | |
| 20260503020331 | 44 | 0.0 | 0.0 | 0.00 | 0.00 | 0.00 | 69 | 1018.5 | |
| 20260503015323 | 44 | 0.0 | 0.0 | 0.00 | 0.00 | 0.00 | 68 | 1018.5 | |
| 20260503014351 | 44 | 73 | 5.0 | 8.0 | 0.00 | 0.00 | 0.00 | 68 | 1018.7 |
| 20260503013323 | 44 | 0.0 | 0.0 | 0.00 | 0.00 | 0.00 | 66 | 1018.9 | |
| 20260503012325 | 45 | 0.0 | 0.0 | 0.00 | 0.00 | 0.00 | 66 | 1018.9 | |
| 20260503011323 | 45 | 0.0 | 0.0 | 0.00 | 0.00 | 0.00 | 67 | 1018.7 | |
| 20260503010331 | 45 | 84 | 5.0 | 17.0 | 0.00 | 0.00 | 0.00 | 67 | 1019.3 |
| 20260503005323 | 45 | 49 | 3.0 | 5.0 | 0.00 | 0.00 | 0.00 | 69 | 1019.3 |
| 20260503004331 | 45 | 0.0 | 0.0 | 0.00 | 0.00 | 0.00 | 69 | 1019.3 | |
| 20260503003323 | 46 | 102 | 2.0 | 8.0 | 0.00 | 0.00 | 0.00 | 68 | 1019.3 |
| 20260503002331 | 46 | 0.0 | 0.0 | 0.00 | 0.00 | 0.00 | 68 | 1019.5 | |
| 20260503001323 | 46 | 124 | 2.0 | 2.0 | 0.00 | 0.00 | 0.00 | 68 | 1019.7 |
| 20260503000325 | 46 | 91 | 8.0 | 15.0 | 0.00 | 0.00 | 0.00 | 63 | 1019.7 |
| 20260502235343 | 46 | 134 | 2.0 | 2.0 | 0.00 | 0.00 | 0.00 | 67 | 1019.7 |
| 20260502234351 | 46 | 85 | 8.0 | 13.0 | 0.00 | 0.00 | 0.00 | 67 | 1019.7 |
| 20260502233322 | 46 | 98 | 2.0 | 8.0 | 0.00 | 0.00 | 0.00 | 68 | 1020.1 |
| 20260502232331 | 46 | 0.0 | 0.0 | 0.00 | 0.00 | 0.00 | 69 | 1020.1 | |
| 20260502231323 | 47 | 136 | 4.0 | 5.0 | 0.00 | 0.00 | 0.00 | 68 | 1020.1 |
| 20260502230351 | 47 | 129 | 5.0 | 8.0 | 0.00 | 0.00 | 0.00 | 71 | 1020.1 |
| 20260502225323 | 47 | 106 | 12.0 | 15.0 | 0.00 | 0.00 | 0.00 | 69 | 1020.1 |
| 20260502224325 | 47 | 99 | 13.0 | 17.0 | 0.00 | 0.00 | 0.00 | 69 | 1020.4 |
| 20260502223323 | 47 | 91 | 11.0 | 15.0 | 0.00 | 0.00 | 0.00 | 72 | 1020.3 |
| 20260502222331 | 48 | 94 | 9.0 | 13.0 | 0.00 | 0.00 | 0.00 | 72 | 1020.1 |
| 20260502221323 | 48 | 102 | 9.0 | 13.0 | 0.00 | 0.00 | 0.00 | 72 | 1020.2 |
| 20260502220330 | 48 | 109 | 9.0 | 17.0 | 0.00 | 0.00 | 0.00 | 71 | 1020.5 |
| 20260502215323 | 48 | 94 | 9.0 | 13.0 | 0.00 | 0.00 | 0.00 | 70 | 1020.1 |
| 20260502214331 | 48 | 100 | 11.0 | 15.0 | 0.00 | 0.00 | 0.00 | 69 | 1020.3 |
| 20260502213323 | 48 | 105 | 9.0 | 13.0 | 0.00 | 0.00 | 0.00 | 69 | 1020.2 |
| 20260502212325 | 48 | 104 | 13.0 | 20.0 | 0.00 | 0.00 | 0.00 | 69 | 1020.5 |
| 20260502211323 | 48 | 105 | 11.0 | 15.0 | 0.00 | 0.00 | 0.00 | 69 | 1020.3 |
| 20260502210351 | 48 | 107 | 10.0 | 13.0 | 0.00 | 0.00 | 0.00 | 71 | 1020.5 |
| 20260502205323 | 48 | 105 | 11.0 | 13.0 | 0.00 | 0.00 | 0.00 | 70 | 1020.5 |
| 20260502204331 | 48 | 99 | 9.0 | 13.0 | 0.00 | 0.00 | 0.00 | 69 | 1020.5 |
| 20260502203343 | 48 | 111 | 8.0 | 13.0 | 0.00 | 0.00 | 0.00 | 71 | 1020.5 |
| 20260502202330 | 48 | 109 | 5.0 | 8.0 | 0.00 | 0.00 | 0.00 | 71 | 1020.5 |
| 20260502201323 | 48 | 83 | 7.0 | 13.0 | 0.00 | 0.00 | 0.00 | 71 | 1020.5 |
| 20260502200405 | 48 | 123 | 4.0 | 10.0 | 0.00 | 0.00 | 0.00 | 72 | 1020.5 |
| 20260502195322 | 49 | 99 | 7.0 | 13.0 | 0.00 | 0.00 | 0.00 | 72 | 1020.5 |
| 20260502194331 | 49 | 101 | 8.0 | 17.0 | 0.00 | 0.00 | 0.00 | 72 | 1020.5 |
| 20260502193342 | 50 | 104 | 9.0 | 13.0 | 0.00 | 0.00 | 0.00 | 71 | 1020.5 |
| 20260502192330 | 50 | 118 | 6.0 | 10.0 | 0.00 | 0.00 | 0.00 | 71 | 1020.5 |
| 20260502191322 | 50 | 112 | 10.0 | 15.0 | 0.00 | 0.00 | 0.00 | 69 | 1020.5 |
| 20260502190330 | 50 | 110 | 9.0 | 13.0 | 0.00 | 0.00 | 0.00 | 68 | 1020.3 |
| 20260502185343 | 50 | 85 | 10.0 | 13.0 | 0.00 | 0.00 | 0.00 | 69 | 1020.1 |
| 20260502184325 | 51 | 103 | 9.0 | 15.0 | 0.00 | 0.00 | 0.00 | 70 | 1020.2 |
| 20260502183323 | 51 | 92 | 10.0 | 13.0 | 0.00 | 0.00 | 0.00 | 70 | 1020.1 |
| 20260502182330 | 51 | 89 | 6.0 | 10.0 | 0.00 | 0.00 | 0.00 | 70 | 1020.1 |
| 20260502181322 | 51 | 114 | 7.0 | 8.0 | 0.00 | 0.00 | 0.00 | 70 | 1020.1 |
| 20260502180330 | 52 | 105 | 7.0 | 10.0 | 0.00 | 0.00 | 0.00 | 69 | 1019.9 |
| 20260502170331 | 55 | 88 | 10.0 | 23.0 | 0.00 | 0.00 | 0.00 | 63 | 1019.7 |
| 20260502164330 | 56 | 79 | 12.0 | 17.0 | 0.00 | 0.00 | 0.00 | 56 | 1019.7 |
| 20260502163317 | 56 | 104 | 10.0 | 15.0 | 0.00 | 0.00 | 0.00 | 57 | 1019.7 |
| 20260502162350 | 57 | 80 | 7.0 | 10.0 | 0.00 | 0.00 | 0.00 | 55 | 1019.9 |
| 20260502161322 | 57 | 94 | 6.0 | 10.0 | 0.00 | 0.00 | 0.00 | 55 | 1020.1 |
| 20260502160324 | 57 | 98 | 6.0 | 10.0 | 0.00 | 0.00 | 0.00 | 55 | 1020.1 |
| 20260502152330 | 58 | 108 | 10.0 | 13.0 | 0.00 | 0.00 | 0.00 | 53 | 1020.1 |
| 20260502151317 | 58 | 100 | 10.0 | 17.0 | 0.00 | 0.00 | 0.00 | 53 | 1020.1 |
| 20260502150330 | 58 | 120 | 10.0 | 17.0 | 0.00 | 0.00 | 0.00 | 54 | 1020.3 |
| 20260502130330 | 58 | 119 | 11.0 | 23.0 | 0.00 | 0.00 | 0.00 | 56 | 1020.9 |
| 20260502123317 | 57 | 151 | 13.0 | 17.0 | 0.00 | 0.00 | 0.00 | 57 | 1020.9 |
| 20260502122330 | 57 | 113 | 13.0 | 20.0 | 0.00 | 0.00 | 0.00 | 55 | 1021.3 |
| 20260502121322 | 57 | 156 | 10.0 | 17.0 | 0.00 | 0.00 | 0.00 | 55 | 1021.3 |
| 20260502120325 | 57 | 130 | 6.0 | 10.0 | 0.00 | 0.00 | 0.00 | 57 | 1021.7 |
| 20260502115322 | 57 | 109 | 12.0 | 20.0 | 0.00 | 0.00 | 0.00 | 57 | 1021.5 |
| 20260502114350 | 57 | 121 | 12.0 | 17.0 | 0.00 | 0.00 | 0.00 | 58 | 1021.7 |
| 20260502113322 | 57 | 137 | 11.0 | 15.0 | 0.00 | 0.00 | 0.00 | 59 | 1021.7 |
| 20260502112330 | 57 | 152 | 9.0 | 15.0 | 0.00 | 0.00 | 0.00 | 60 | 1021.7 |
| 20260502111317 | 57 | 150 | 8.0 | 13.0 | 0.00 | 0.00 | 0.00 | 60 | 1021.7 |
| 20260502110330 | 57 | 119 | 13.0 | 17.0 | 0.00 | 0.00 | 0.00 | 56 | 1021.7 |
| 20260502105322 | 57 | 113 | 11.0 | 17.0 | 0.00 | 0.00 | 0.00 | 57 | 1021.7 |
| 20260502104345 | 57 | 128 | 8.0 | 13.0 | 0.00 | 0.00 | 0.00 | 55 | 1021.8 |
| 20260502103322 | 57 | 91 | 8.0 | 13.0 | 0.00 | 0.00 | 0.00 | 55 | 1022.1 |
| 20260502102330 | 58 | 105 | 8.0 | 15.0 | 0.00 | 0.00 | 0.00 | 54 | 1022.1 |
| 20260502101322 | 57 | 128 | 8.0 | 10.0 | 0.00 | 0.00 | 0.00 | 51 | 1022.1 |
| 20260502100510 | 57 | 144 | 9.0 | 13.0 | 0.00 | 0.00 | 0.00 | 51 | 1022.1 |
| 20260502091322 | 57 | 208 | 4.0 | 8.0 | 0.00 | 0.00 | 0.00 | 56 | 1022.5 |
| 20260502090330 | 57 | 143 | 2.0 | 5.0 | 0.00 | 0.00 | 0.00 | 52 | 1022.5 |
| 20260502071317 | 54 | 164 | 0.0 | 2.0 | 0.00 | 0.00 | 0.00 | 56 | 1023.3 |
| 20260502070330 | 54 | 0.0 | 0.0 | 0.00 | 0.00 | 0.00 | 56 | 1022.9 | |
| 20260502065322 | 53 | 0.0 | 0.0 | 0.00 | 0.00 | 0.00 | 52 | 1023.2 | |
| 20260502064345 | 51 | 0.0 | 0.0 | 0.00 | 0.00 | 0.00 | 55 | 1023.2 | |
| 20260502063322 | 49 | 0.0 | 0.0 | 0.00 | 0.00 | 0.00 | 54 | 1023.1 | |
| 20260502062330 | 47 | 0.0 | 0.0 | 0.00 | 0.00 | 0.00 | 59 | 1022.9 | |
| 20260502061342 | 46 | 0.0 | 0.0 | 0.00 | 0.00 | 0.00 | 63 | 1022.9 | |
| 20260502060330 | 46 | 0.0 | 0.0 | 0.00 | 0.00 | 0.00 | 63 | 1022.9 | |
| 20260502055317 | 45 | 0.0 | 0.0 | 0.00 | 0.00 | 0.00 | 62 | 1022.9 | |
| 20260502054350 | 45 | 0.0 | 0.0 | 0.00 | 0.00 | 0.00 | 64 | 1023.2 | |
| 20260502053321 | 45 | 0.0 | 0.0 | 0.00 | 0.00 | 0.00 | 65 | 1023.3 | |
| 20260502052325 | 45 | 0.0 | 0.0 | 0.00 | 0.00 | 0.00 | 64 | 1023.2 | |
| 20260502051322 | 45 | 0.0 | 0.0 | 0.00 | 0.00 | 0.00 | 65 | 1023.1 | |
| 20260502050330 | 45 | 0.0 | 0.0 | 0.00 | 0.00 | 0.00 | 65 | 1022.9 | |
| 20260502045322 | 45 | 0.0 | 0.0 | 0.00 | 0.00 | 0.00 | 64 | 1023.3 | |
| 20260502044330 | 45 | 0.0 | 0.0 | 0.00 | 0.00 | 0.00 | 64 | 1022.9 | |
| 20260502043317 | 44 | 0.0 | 0.0 | 0.00 | 0.00 | 0.00 | 64 | 1022.9 | |
| 20260502042330 | 44 | 0.0 | 0.0 | 0.00 | 0.00 | 0.00 | 65 | 1022.9 | |
| 20260502041342 | 44 | 0.0 | 0.0 | 0.00 | 0.00 | 0.00 | 64 | 1023.2 | |
| 20260502040325 | 45 | 0.0 | 0.0 | 0.00 | 0.00 | 0.00 | 63 | 1023.0 | |
| 20260502035322 | 45 | 0.0 | 0.0 | 0.00 | 0.00 | 0.00 | 63 | 1022.9 | |
| 20260502034330 | 45 | 0.0 | 0.0 | 0.00 | 0.00 | 0.00 | 63 | 1022.9 | |
| 20260502033322 | 45 | 0.0 | 0.0 | 0.00 | 0.00 | 0.00 | 62 | 1022.9 | |
| 20260502032330 | 45 | 0.0 | 0.0 | 0.00 | 0.00 | 0.00 | 62 | 1022.9 | |
| 20260502031321 | 45 | 0.0 | 0.0 | 0.00 | 0.00 | 0.00 | 62 | 1023.3 | |
| 20260502030330 | 45 | 0.0 | 0.0 | 0.00 | 0.00 | 0.00 | 61 | 1023.3 | |
| 20260502025322 | 45 | 79 | 3.0 | 5.0 | 0.00 | 0.00 | 0.00 | 63 | 1023.3 |
| 20260502024325 | 44 | 0.0 | 0.0 | 0.00 | 0.00 | 0.00 | 61 | 1023.6 | |
| 20260502023322 | 44 | 0.0 | 0.0 | 0.00 | 0.00 | 0.00 | 61 | 1023.3 | |
| 20260502022330 | 44 | 0.0 | 0.0 | 0.00 | 0.00 | 0.00 | 64 | 1023.3 |